N13SY KVNY-KOAK

Flight info

Callsign N13SY
Flight time 1h 3m
Altitude 43000
Route WLKKR5 COREZ RGOOD EMZOH4
Aircraft C750/M-SBDE3FGHRWXY/S

Departure

Time 2026-04-22 14:22
Airport Van Nuys Airport (KVNY)

Arrival

Time 2026-04-22 15:25
Airport San Francisco Bay Oakland International Airport (KOAK)
Time Latitude Longitude Altitude Speed Heading
2026-04-22 13:16 34.20814 -118.49196 808 ft 0 kts 90°
2026-04-22 14:14 34.20814 -118.49195 808 ft 0 kts 90°
2026-04-22 14:14 34.20814 -118.49179 808 ft 4 kts 89°
2026-04-22 14:14 34.20814 -118.49178 808 ft 0 kts 88°
2026-04-22 14:15 34.20817 -118.49167 808 ft 4 kts 67°
2026-04-22 14:15 34.20852 -118.49144 808 ft 8 kts
2026-04-22 14:16 34.20923 -118.49150 808 ft 11 kts 355°
2026-04-22 14:16 34.21008 -118.49158 807 ft 13 kts 355°
2026-04-22 14:16 34.21091 -118.49166 807 ft 12 kts 356°
2026-04-22 14:16 34.21169 -118.49173 807 ft 11 kts 355°
2026-04-22 14:17 34.21243 -118.49180 807 ft 11 kts 356°
2026-04-22 14:17 34.21337 -118.49189 807 ft 16 kts 355°
2026-04-22 14:17 34.21455 -118.49200 807 ft 17 kts 355°
2026-04-22 14:17 34.21566 -118.49220 807 ft 15 kts 355°
2026-04-22 14:18 34.21667 -118.49228 807 ft 14 kts 358°
2026-04-22 14:18 34.21756 -118.49231 807 ft 12 kts 356°
2026-04-22 14:18 34.21833 -118.49238 807 ft 8 kts 358°
2026-04-22 14:18 34.21864 -118.49226 807 ft 0 kts 36°
2026-04-22 14:19 34.21868 -118.49223 807 ft 1 kts 38°
2026-04-22 14:20 34.21880 -118.49160 807 ft 7 kts 85°
2026-04-22 14:20 34.21875 -118.49126 807 ft 2 kts 138°
2026-04-22 14:20 34.21867 -118.49124 807 ft 0 kts 174°
2026-04-22 14:21 34.21190 -118.49060 808 ft 131 kts 175°
2026-04-22 14:21 34.20178 -118.48969 1128 ft 149 kts 176°
2026-04-22 14:22 34.18035 -118.49019 2308 ft 162 kts 199°
2026-04-22 14:22 34.17072 -118.49750 2955 ft 165 kts 223°
2026-04-22 14:22 34.15481 -118.51730 4042 ft 176 kts 224°
2026-04-22 14:23 34.14573 -118.52771 4665 ft 186 kts 225°
2026-04-22 14:23 34.13598 -118.53906 5178 ft 207 kts 225°
2026-04-22 14:23 34.12503 -118.55193 5630 ft 232 kts 226°
2026-04-22 14:23 34.11342 -118.56675 6096 ft 253 kts 236°
2026-04-22 14:24 34.10774 -118.58680 6840 ft 255 kts 270°
2026-04-22 14:24 34.11280 -118.60701 7787 ft 260 kts 300°
2026-04-22 14:24 34.12706 -118.62134 8630 ft 271 kts 331°
2026-04-22 14:24 34.14550 -118.62503 9955 ft 275 kts 356°
2026-04-22 14:25 34.16455 -118.62024 10790 ft 282 kts
2026-04-22 14:25 34.18422 -118.61429 11228 ft 300 kts
2026-04-22 14:25 34.20481 -118.60949 11974 ft 300 kts
2026-04-22 14:25 34.22568 -118.60637 12503 ft 312 kts 358°
2026-04-22 14:26 34.24760 -118.60496 13151 ft 316 kts 354°
2026-04-22 14:26 34.26968 -118.60576 13767 ft 321 kts 348°
2026-04-22 14:26 34.29171 -118.61100 14145 ft 327 kts 336°
2026-04-22 14:26 34.30625 -118.61771 14322 ft 335 kts 331°
2026-04-22 14:27 34.32845 -118.62807 14783 ft 347 kts 335°
2026-04-22 14:27 34.35182 -118.63650 15451 ft 352 kts 337°
2026-04-22 14:27 34.37537 -118.64563 15881 ft 360 kts 334°
2026-04-22 14:27 34.39898 -118.65669 16270 ft 368 kts 330°
2026-04-22 14:28 34.42218 -118.66999 16877 ft 369 kts 326°
2026-04-22 14:28 34.44503 -118.68455 17476 ft 371 kts 323°
2026-04-22 14:28 34.46722 -118.70055 18248 ft 368 kts 321°
2026-04-22 14:28 34.48921 -118.71670 18830 ft 377 kts 323°
2026-04-22 14:29 34.51181 -118.73244 19353 ft 380 kts 322°
2026-04-22 14:29 34.53473 -118.74836 20109 ft 380 kts 323°
2026-04-22 14:29 34.55766 -118.76452 20699 ft 384 kts 321°
2026-04-22 14:29 34.58072 -118.78137 21283 ft 389 kts 321°
2026-04-22 14:30 34.60392 -118.79844 21972 ft 390 kts 321°
2026-04-22 14:30 34.62698 -118.81560 22651 ft 390 kts 320°
2026-04-22 14:30 34.65057 -118.83284 23159 ft 397 kts 321°
2026-04-22 14:30 34.67465 -118.84972 23718 ft 400 kts 322°
2026-04-22 14:31 34.69863 -118.86655 24158 ft 404 kts 321°
2026-04-22 14:31 34.72292 -118.88380 24686 ft 405 kts 321°
2026-04-22 14:31 34.74740 -118.90114 25215 ft 408 kts 321°
2026-04-22 14:31 34.77196 -118.91861 25721 ft 410 kts 321°
2026-04-22 14:32 34.79668 -118.93624 26237 ft 413 kts 321°
2026-04-22 14:32 34.82153 -118.95398 26740 ft 415 kts 321°
2026-04-22 14:32 34.84651 -118.97185 27267 ft 417 kts 321°
2026-04-22 14:32 34.87161 -118.98976 27780 ft 418 kts 321°
2026-04-22 14:33 34.89683 -119.00777 28226 ft 422 kts 321°
2026-04-22 14:33 34.92223 -119.02599 28710 ft 425 kts 321°
2026-04-22 14:33 34.94783 -119.04434 29193 ft 427 kts 321°
2026-04-22 14:33 34.97357 -119.06274 29709 ft 430 kts 321°
2026-04-22 14:34 34.99910 -119.08102 30240 ft 431 kts 321°
2026-04-22 14:34 35.02507 -119.09967 30648 ft 434 kts 321°
2026-04-22 14:34 35.05115 -119.11840 31062 ft 437 kts 321°
2026-04-22 14:34 35.07737 -119.13718 31636 ft 435 kts 321°
2026-04-22 14:35 35.10339 -119.15582 32276 ft 432 kts 320°
2026-04-22 14:35 35.12920 -119.17441 32871 ft 430 kts 320°
2026-04-22 14:35 35.15500 -119.19302 33504 ft 429 kts 320°
2026-04-22 14:35 35.18054 -119.21137 34247 ft 423 kts 320°
2026-04-22 14:36 35.20580 -119.22954 34833 ft 420 kts 319°
2026-04-22 14:36 35.23092 -119.24770 35385 ft 417 kts 319°
2026-04-22 14:36 35.25583 -119.26571 35928 ft 415 kts 319°
2026-04-22 14:36 35.28071 -119.28366 36486 ft 413 kts 319°
2026-04-22 14:37 35.30533 -119.30144 37029 ft 410 kts 319°
2026-04-22 14:37 35.32988 -119.31920 37590 ft 408 kts 319°
2026-04-22 14:37 35.35419 -119.33681 38201 ft 405 kts 318°
2026-04-22 14:37 35.37803 -119.35406 38789 ft 401 kts 318°
2026-04-22 14:38 35.40204 -119.37148 39182 ft 401 kts 318°
2026-04-22 14:38 35.42604 -119.38894 39469 ft 402 kts 318°
2026-04-22 14:38 35.45019 -119.40647 39774 ft 404 kts 319°
2026-04-22 14:38 35.47440 -119.42402 40086 ft 405 kts 319°
2026-04-22 14:39 35.49869 -119.44168 40404 ft 406 kts 319°
2026-04-22 14:39 35.52309 -119.45944 40722 ft 408 kts 319°
2026-04-22 14:39 35.54744 -119.47731 41076 ft 407 kts 318°
2026-04-22 14:40 35.59154 -119.51957 41675 ft 401 kts 311°
2026-04-22 14:40 35.61313 -119.54153 41959 ft 403 kts 311°
2026-04-22 14:40 35.63486 -119.56352 42265 ft 404 kts 311°
2026-04-22 14:40 35.65653 -119.58566 42572 ft 406 kts 311°
2026-04-22 14:41 35.67820 -119.60791 42866 ft 407 kts 312°
2026-04-22 14:41 35.70003 -119.63024 43201 ft 408 kts 312°
2026-04-22 14:41 35.74432 -119.67561 43196 ft 424 kts 313°
2026-04-22 14:42 35.79051 -119.72295 43214 ft 439 kts 313°
2026-04-22 14:42 35.83824 -119.77197 43214 ft 453 kts 313°
2026-04-22 14:43 35.88739 -119.82253 43205 ft 467 kts 313°
2026-04-22 14:43 35.93540 -119.87613 43205 ft 464 kts 309°
2026-04-22 14:44 35.98207 -119.93117 43215 ft 462 kts 310°
2026-04-22 14:44 36.02023 -119.97638 43209 ft 452 kts 309°
2026-04-22 14:45 36.07228 -120.03827 43206 ft 441 kts 309°
2026-04-22 14:45 36.11617 -120.09050 43205 ft 438 kts 309°
2026-04-22 14:46 36.13818 -120.11677 42777 ft 440 kts 309°
2026-04-22 14:46 36.16014 -120.14288 42232 ft 435 kts 309°
2026-04-22 14:46 36.18181 -120.16864 41653 ft 428 kts 308°
2026-04-22 14:46 36.20317 -120.19416 41126 ft 422 kts 308°
2026-04-22 14:47 36.22412 -120.21926 40541 ft 416 kts 307°
2026-04-22 14:47 36.24474 -120.24391 40003 ft 409 kts 307°
2026-04-22 14:47 36.26502 -120.26814 39467 ft 402 kts 307°
2026-04-22 14:47 36.28498 -120.29204 38945 ft 395 kts 306°
2026-04-22 14:48 36.30453 -120.31550 38371 ft 387 kts 306°
2026-04-22 14:48 36.32362 -120.33838 37855 ft 378 kts 306°
2026-04-22 14:48 36.34213 -120.36059 37379 ft 371 kts 306°
2026-04-22 14:48 36.36055 -120.38277 36943 ft 367 kts 306°
2026-04-22 14:49 36.37884 -120.40483 36395 ft 366 kts 305°
2026-04-22 14:49 36.39710 -120.42677 35935 ft 364 kts 305°
2026-04-22 14:49 36.41527 -120.44865 35449 ft 366 kts 305°
2026-04-22 14:49 36.43377 -120.47099 34968 ft 375 kts 305°
2026-04-22 14:50 36.45264 -120.49378 34472 ft 383 kts 306°
2026-04-22 14:50 36.47196 -120.51712 33942 ft 390 kts 306°
2026-04-22 14:50 36.49157 -120.54077 33411 ft 395 kts 306°
2026-04-22 14:50 36.51134 -120.56450 32884 ft 393 kts 306°
2026-04-22 14:51 36.53085 -120.58801 32368 ft 388 kts 306°
2026-04-22 14:51 36.55079 -120.61069 31850 ft 388 kts 309°
2026-04-22 14:51 36.57089 -120.63283 31347 ft 384 kts 309°
2026-04-22 14:51 36.59079 -120.65484 30845 ft 382 kts 309°
2026-04-22 14:52 36.61056 -120.67679 30341 ft 380 kts 309°
2026-04-22 14:52 36.63000 -120.69834 29815 ft 377 kts 309°
2026-04-22 14:52 36.64953 -120.71996 29313 ft 373 kts 309°
2026-04-22 14:52 36.66881 -120.74132 28829 ft 369 kts 309°
2026-04-22 14:53 36.68791 -120.76254 28344 ft 366 kts 309°
2026-04-22 14:53 36.70688 -120.78365 27855 ft 364 kts 309°
2026-04-22 14:53 36.72568 -120.80456 27379 ft 361 kts 310°
2026-04-22 14:53 36.74438 -120.82533 26892 ft 359 kts 310°
2026-04-22 14:54 36.76293 -120.84598 26427 ft 357 kts 310°
2026-04-22 14:54 36.78134 -120.86652 25957 ft 354 kts 310°
2026-04-22 14:54 36.79975 -120.88691 25491 ft 353 kts 310°
2026-04-22 14:54 36.81808 -120.90713 25027 ft 351 kts 310°
2026-04-22 14:55 36.83634 -120.92736 24558 ft 350 kts 310°
2026-04-22 14:55 36.85446 -120.94751 24110 ft 349 kts 310°
2026-04-22 14:55 36.87258 -120.96763 23602 ft 347 kts 310°
2026-04-22 14:55 36.89030 -120.98728 23145 ft 344 kts 310°
2026-04-22 14:56 36.90818 -121.00712 22694 ft 341 kts 310°
2026-04-22 14:56 36.92576 -121.02669 22245 ft 337 kts 311°
2026-04-22 14:56 36.94319 -121.04610 21804 ft 334 kts 311°
2026-04-22 14:56 36.96052 -121.06540 21363 ft 332 kts 311°
2026-04-22 14:57 36.97771 -121.08456 20932 ft 329 kts 311°
2026-04-22 14:57 36.99475 -121.10355 20495 ft 327 kts 311°
2026-04-22 14:57 37.01173 -121.12249 20066 ft 326 kts 311°
2026-04-22 14:57 37.02852 -121.14126 19631 ft 322 kts 311°
2026-04-22 14:58 37.04519 -121.15995 19211 ft 320 kts 311°
2026-04-22 14:58 37.06158 -121.17817 18788 ft 318 kts 312°
2026-04-22 14:58 37.07805 -121.19656 18356 ft 317 kts 312°
2026-04-22 14:58 37.09445 -121.21497 17778 ft 318 kts 312°
2026-04-22 14:59 37.11089 -121.23341 17337 ft 315 kts 312°
2026-04-22 14:59 37.12738 -121.25136 16898 ft 314 kts 316°
2026-04-22 14:59 37.14645 -121.26515 16472 ft 319 kts 328°
2026-04-22 14:59 37.16674 -121.27616 16086 ft 317 kts 329°
2026-04-22 15:00 37.18682 -121.28739 15659 ft 315 kts 329°
2026-04-22 15:00 37.20679 -121.29870 15239 ft 314 kts 329°
2026-04-22 15:00 37.22667 -121.30975 14950 ft 309 kts 330°
2026-04-22 15:00 37.24649 -121.32071 14411 ft 310 kts 330°
2026-04-22 15:01 37.26614 -121.33172 14028 ft 309 kts 330°
2026-04-22 15:01 37.28500 -121.34228 14017 ft 290 kts 330°
2026-04-22 15:01 37.30285 -121.35219 13881 ft 274 kts 330°
2026-04-22 15:01 37.32014 -121.36189 13400 ft 271 kts 330°
2026-04-22 15:02 37.33735 -121.37159 12909 ft 271 kts 330°
2026-04-22 15:02 37.35459 -121.38126 12388 ft 271 kts 331°
2026-04-22 15:02 37.37186 -121.39094 11883 ft 272 kts 331°
2026-04-22 15:02 37.38908 -121.40059 11418 ft 271 kts 331°
2026-04-22 15:03 37.40630 -121.41025 11057 ft 268 kts 332°
2026-04-22 15:03 37.42321 -121.41974 10699 ft 264 kts 332°
2026-04-22 15:03 37.43983 -121.42905 10355 ft 260 kts 332°
2026-04-22 15:03 37.45631 -121.43833 10016 ft 261 kts 332°
2026-04-22 15:04 37.47298 -121.44771 9650 ft 262 kts 332°
2026-04-22 15:04 37.48946 -121.45696 9303 ft 263 kts 332°
2026-04-22 15:04 37.50612 -121.46633 9009 ft 260 kts 333°
2026-04-22 15:04 37.52216 -121.47532 9025 ft 246 kts 332°
2026-04-22 15:05 37.53756 -121.48398 9021 ft 239 kts 332°
2026-04-22 15:05 37.55274 -121.49256 9021 ft 240 kts 332°
2026-04-22 15:05 37.56829 -121.50136 9027 ft 250 kts 332°
2026-04-22 15:05 37.58444 -121.51046 9034 ft 259 kts 332°
2026-04-22 15:06 37.59569 -121.51680 9048 ft 264 kts 332°
2026-04-22 15:06 37.61786 -121.52927 8980 ft 261 kts 332°
2026-04-22 15:06 37.63454 -121.53867 8785 ft 263 kts 332°
2026-04-22 15:06 37.65133 -121.54818 8563 ft 265 kts 332°
2026-04-22 15:07 37.66819 -121.55772 8328 ft 267 kts 332°
2026-04-22 15:07 37.68523 -121.56732 8094 ft 269 kts 332°
2026-04-22 15:07 37.70132 -121.57857 8022 ft 258 kts 323°
2026-04-22 15:07 37.71614 -121.59068 8021 ft 250 kts 323°
2026-04-22 15:08 37.73068 -121.60226 8018 ft 244 kts 323°
2026-04-22 15:08 37.74496 -121.61363 8009 ft 242 kts 323°
2026-04-22 15:08 37.75915 -121.62501 7987 ft 241 kts 323°
2026-04-22 15:08 37.77351 -121.63657 7985 ft 250 kts 323°
2026-04-22 15:09 37.78830 -121.64844 7994 ft 260 kts 323°
2026-04-22 15:09 37.80385 -121.66092 7992 ft 269 kts 323°
2026-04-22 15:09 37.81970 -121.67363 7982 ft 268 kts 324°
2026-04-22 15:09 37.83549 -121.68628 7839 ft 268 kts 323°
2026-04-22 15:10 37.85127 -121.69897 7630 ft 269 kts 323°
2026-04-22 15:10 37.86703 -121.71166 7399 ft 267 kts 323°
2026-04-22 15:10 37.88257 -121.72447 7152 ft 263 kts 321°
2026-04-22 15:10 37.89418 -121.74156 6943 ft 251 kts 295°
2026-04-22 15:11 37.89938 -121.76163 6954 ft 234 kts 276°
2026-04-22 15:11 37.90092 -121.78167 6978 ft 225 kts 274°
2026-04-22 15:11 37.90260 -121.80133 6989 ft 224 kts 274°
2026-04-22 15:11 37.90423 -121.82089 6987 ft 223 kts 274°
2026-04-22 15:12 37.90578 -121.84048 6979 ft 224 kts 274°
2026-04-22 15:12 37.90730 -121.86018 6930 ft 227 kts 274°
2026-04-22 15:12 37.90893 -121.88035 6762 ft 234 kts 274°
2026-04-22 15:12 37.91060 -121.90082 6559 ft 237 kts 274°
2026-04-22 15:13 37.91224 -121.92161 6352 ft 237 kts 274°
2026-04-22 15:13 37.91385 -121.94202 6112 ft 228 kts 274°
2026-04-22 15:13 37.91544 -121.96158 5971 ft 218 kts 274°
2026-04-22 15:13 37.91670 -121.98014 5944 ft 204 kts 272°
2026-04-22 15:14 37.91739 -121.99182 5940 ft 196 kts 272°
2026-04-22 15:14 37.91844 -122.00859 5942 ft 185 kts 272°
2026-04-22 15:14 37.91953 -122.02418 5943 ft 171 kts 273°
2026-04-22 15:14 37.92068 -122.03891 5950 ft 166 kts 273°
2026-04-22 15:15 37.92180 -122.05337 5917 ft 166 kts 272°
2026-04-22 15:15 37.92250 -122.06848 5626 ft 176 kts 271°
2026-04-22 15:15 37.92342 -122.08438 5256 ft 191 kts 272°
2026-04-22 15:15 37.92457 -122.10222 4749 ft 213 kts 272°
2026-04-22 15:16 37.92584 -122.12114 4270 ft 221 kts 273°
2026-04-22 15:16 37.92715 -122.14065 3976 ft 214 kts 273°
2026-04-22 15:16 37.92723 -122.15823 3958 ft 187 kts 264°
2026-04-22 15:16 37.92638 -122.17387 3963 ft 171 kts 264°
2026-04-22 15:17 37.92571 -122.18878 3958 ft 168 kts 265°
2026-04-22 15:17 37.92502 -122.20358 3984 ft 169 kts 264°
2026-04-22 15:17 37.92428 -122.21883 3983 ft 177 kts 264°
2026-04-22 15:17 37.92352 -122.23461 3985 ft 181 kts 265°
2026-04-22 15:18 37.92276 -122.25050 3983 ft 178 kts 264°
2026-04-22 15:18 37.92200 -122.26614 3982 ft 177 kts 265°
2026-04-22 15:18 37.92125 -122.28164 3967 ft 180 kts 265°
2026-04-22 15:18 37.92046 -122.29738 3975 ft 179 kts 264°
2026-04-22 15:19 37.91727 -122.31248 3967 ft 177 kts 244°
2026-04-22 15:19 37.91043 -122.32523 3968 ft 174 kts 227°
2026-04-22 15:19 37.90077 -122.33458 3871 ft 179 kts 210°
2026-04-22 15:19 37.88871 -122.33960 3654 ft 187 kts 193°
2026-04-22 15:20 37.87589 -122.34186 3436 ft 184 kts 191°
2026-04-22 15:20 37.86328 -122.34432 3215 ft 181 kts 192°
2026-04-22 15:20 37.85096 -122.34670 2994 ft 178 kts 191°
2026-04-22 15:20 37.83891 -122.34901 2791 ft 173 kts 190°
2026-04-22 15:21 37.82702 -122.35125 2587 ft 171 kts 191°
2026-04-22 15:21 37.81545 -122.35323 2481 ft 164 kts 189°
2026-04-22 15:21 37.80428 -122.35297 2387 ft 159 kts 172°
2026-04-22 15:21 37.79440 -122.34707 2206 ft 153 kts 148°
2026-04-22 15:22 37.78672 -122.33890 2014 ft 138 kts 143°
2026-04-22 15:22 37.77983 -122.33078 1737 ft 135 kts 136°
2026-04-22 15:22 37.77377 -122.32237 1609 ft 129 kts 135°
2026-04-22 15:22 37.76800 -122.31384 1463 ft 128 kts 130°
2026-04-22 15:23 37.76210 -122.30511 1178 ft 132 kts 133°
2026-04-22 15:23 37.75604 -122.29643 972 ft 132 kts 128°
2026-04-22 15:23 37.75037 -122.28735 826 ft 130 kts 130°
2026-04-22 15:23 37.74440 -122.27888 697 ft 129 kts 132°
2026-04-22 15:24 37.73880 -122.27015 557 ft 127 kts 127°
2026-04-22 15:24 37.73318 -122.26156 394 ft 126 kts 130°
2026-04-22 15:24 37.72754 -122.25328 279 ft 125 kts 130°
2026-04-22 15:24 37.72187 -122.24483 106 ft 127 kts 130°
2026-04-22 15:25 37.71634 -122.23654 7 ft 118 kts 130°
2026-04-22 15:25 37.71227 -122.23043 6 ft 60 kts 129°
2026-04-22 15:25 37.71011 -122.22719 4 ft 44 kts 130°
2026-04-22 15:25 37.70832 -122.22451 3 ft 36 kts 130°
2026-04-22 15:26 37.70700 -122.22239 5 ft 24 kts 123°
2026-04-22 15:26 37.70642 -122.22086 7 ft 17 kts 107°
2026-04-22 15:26 37.70623 -122.21968 7 ft 9 kts 97°
2026-04-22 15:26 37.70622 -122.21894 6 ft 8 kts 81°
2026-04-22 15:27 37.70633 -122.21857 6 ft 2 kts 65°
2026-04-22 15:27 37.70639 -122.21842 6 ft 1 kts 60°
2026-04-22 15:27 37.70643 -122.21836 6 ft 1 kts 51°
2026-04-22 15:27 37.70644 -122.21835 6 ft 0 kts 50°
2026-04-22 15:28 37.70645 -122.21833 6 ft 1 kts 47°
2026-04-22 15:28 37.70665 -122.21829 6 ft 5 kts 342°
2026-04-22 15:28 37.70697 -122.21871 6 ft 9 kts 308°
2026-04-22 15:28 37.70739 -122.21943 6 ft 12 kts 309°
2026-04-22 15:29 37.70804 -122.22032 6 ft 15 kts 311°
2026-04-22 15:29 37.70879 -122.22145 6 ft 18 kts 310°
2026-04-22 15:29 37.70961 -122.22268 5 ft 19 kts 310°
2026-04-22 15:30 37.71129 -122.22407 6 ft 12 kts 35°
2026-04-22 15:30 37.71186 -122.22348 5 ft 10 kts 41°
2026-04-22 15:30 37.71235 -122.22294 5 ft 10 kts 40°
2026-04-22 15:30 37.71288 -122.22238 5 ft 11 kts 39°
2026-04-22 15:31 37.71345 -122.22165 5 ft 12 kts 48°
2026-04-22 15:31 37.71406 -122.22078 5 ft 14 kts 47°
2026-04-22 15:31 37.71473 -122.21983 5 ft 16 kts 48°
2026-04-22 15:31 37.71550 -122.21873 5 ft 18 kts 50°
2026-04-22 15:32 37.71640 -122.21748 5 ft 21 kts 48°
2026-04-22 15:32 37.71740 -122.21605 5 ft 23 kts 48°
2026-04-22 15:32 37.71848 -122.21452 5 ft 23 kts 48°
2026-04-22 15:32 37.71954 -122.21302 5 ft 22 kts 48°
2026-04-22 15:33 37.72024 -122.21151 5 ft 19 kts 69°
2026-04-22 15:33 37.72063 -122.21023 11 ft 12 kts 68°
2026-04-22 15:33 37.72088 -122.20946 11 ft 10 kts 68°
2026-04-22 15:33 37.72115 -122.20860 7 ft 13 kts 68°
2026-04-22 15:34 37.72146 -122.20756 5 ft 13 kts 68°
2026-04-22 15:34 37.72186 -122.20659 4 ft 13 kts 50°
2026-04-22 15:34 37.72257 -122.20600 4 ft 12 kts 22°
2026-04-22 15:34 37.72325 -122.20566 5 ft 10 kts 22°
2026-04-22 15:35 37.72366 -122.20544 5 ft 9 kts 22°
2026-04-22 15:35 37.72446 -122.20505 5 ft 9 kts 22°
2026-04-22 15:35 37.72505 -122.20474 5 ft 9 kts 22°
2026-04-22 15:35 37.72564 -122.20455 6 ft 9 kts 351°
2026-04-22 15:36 37.72598 -122.20514 6 ft 9 kts 290°
2026-04-22 15:36 37.72623 -122.20590 5 ft 10 kts 294°
2026-04-22 15:36 37.72652 -122.20678 5 ft 12 kts 292°
2026-04-22 15:36 37.72682 -122.20778 6 ft 13 kts 290°
2026-04-22 15:37 37.72721 -122.20891 6 ft 16 kts 292°
2026-04-22 15:37 37.72765 -122.21028 6 ft 17 kts 292°
2026-04-22 15:37 37.72812 -122.21173 6 ft 18 kts 292°
2026-04-22 15:37 37.72860 -122.21271 6 ft 10 kts 328°
2026-04-22 15:38 37.72917 -122.21254 5 ft 8 kts 38°
2026-04-22 15:38 37.72992 -122.21196 5 ft 3 kts 353°
2026-04-22 15:38 37.73003 -122.21210 5 ft 1 kts 306°